Terminal Aerodrome Forecast
Issued by NWS

Home | Current Version | Previous Version | Text Only | Print | Product List | Glossary On
Versions: 1 2 3 4 5 6 7 8 9 10 11 12 13 14 15 16 17 18 19 20 21 22 23 24 25 26 27 28 29 30 31 32 33 34
000
FTUS46 KOTX 222328
TAFCOE
TAF
KCOE 222328Z 2300/2324 02012G20KT P6SM VCTS SCT060CB BKN150
     FM230300 05006KT P6SM VCSH SCT070 BKN120
     FM230800 03010KT P6SM FEW120
     FM231800 03012KT P6SM VCSH BKN070 BKN120
      AMD LTD TO CLD AND VIS=

USA.gov is the U.S. government's official web portal to all federal, state and local government web resources and services.